Regional Weather Roundup
Issued by NWS Upton, NY

Current Version | Previous Version | Graphics & Text | Print | Product List | Glossary Off
Versions: 1 2 3 4 5 6 7 8 9 10 11 12 13 14 15 16 17 18 19 20 21 22 23 24 25 26 27 28 29 30 31 32 33 34 35 36 37 38 39 40 41 42 43 44 45 46 47 48 49 50

000
ASUS41 KOKX 281205
RWROKX

REGIONAL WEATHER ROUNDUP
NATIONAL WEATHER SERVICE NEW YORK NY
800 AM EDT MON JUL 28 2014

NOTE: "FAIR" INDICATES FEW OR NO CLOUDS BELOW 12,000 FEET WITH NO
SIGNIFICANT WEATHER AND/OR OBSTRUCTIONS TO VISIBILITY.

NYZ071-072-176-178-NJZ106-104-281300-
NEW YORK CITY METRO AREA


CITY           SKY/WX    TMP DP  RH WIND       PRES   REMARKS
CENTRAL PARK   CLOUDY    71  67  87 VRB3      29.58F
LAGUARDIA APRT CLOUDY    72  67  84 S12       29.55S
KENNEDY INTL   PTSUNNY   73  68  84 S14       29.56F
NEWARK/LIBERTY CLOUDY    72  67  84 S7        29.56S
BRNX BOT. GARD   N/A     72  66  83 SE8       29.55F
TETERBORO      CLOUDY    74  67  78 S6        29.55S
$$

NYZ177-179-078>081-281300-
LONG ISLAND NEW YORK

CITY           SKY/WX    TMP DP  RH WIND       PRES   REMARKS
FARMINGDALE    PTSUNNY   70  68  93 S9        29.56F
ISLIP          PTSUNNY   73  68  84 S9        29.54F
SHIRLEY        PTSUNNY   73  69  87 S13       29.57F
WESTHAMPTON    PTSUNNY   71  69  93 S10       29.59R
MONTAUK POINT    N/A     71  67  87 S9G17     29.58F
$$

NYZ052-065-067-281300-
HUDSON VALLEY

CITY           SKY/WX    TMP DP  RH WIND       PRES   REMARKS
WHITE PLAINS   CLOUDY    69  67  93 S8        29.56S
NEWBURGH       NOT AVBL
MONTGOMERY     PTSUNNY   70  66  87 S6        29.54S
POUGHKEEPSIE   CLOUDY    71  68  90 CALM      29.52F
ALBANY         CLOUDY    65  62  90 N10       29.55F
$$

NJZ001-105-106-008-010-013-015-019>022-104-281300-
NEW JERSEY

CITY           SKY/WX    TMP DP  RH WIND       PRES   REMARKS
NEWARK/LIBERTY CLOUDY    72  67  84 S7        29.56S
TETERBORO      CLOUDY    74  67  78 S6        29.55S
CALDWELL       CLOUDY    70  66  87 VRB5      29.56R
MORRISTOWN     PTSUNNY   72  68  88 SW8       29.57R
SOMERVILLE     CLOUDY    70  67  90 S5        29.55S
LINDEN         CLOUDY    72  67  85 CALM      29.58S
SUSSEX         CLOUDY    71  67  87 SW5       29.56R
ANDOVER          N/A     68  66  93 SW5       29.58R
TRENTON        PTSUNNY   69  66  90 MISG      29.57R
MILLVILLE      MOSUNNY   76  73  91 W8        29.59R
ATLANTIC CITY  MOSUNNY   75  73  93 SW10      29.58R
WRIGHTSTOWN    CLOUDY    70  70  99 SW7       29.56R
TOMS RIVER     PTSUNNY   72  70  94 CALM      29.58R
BELMAR         CLOUDY    72  66  83 S5        29.57S
$$

PAZ047>061-062-071-281300-
EASTERN PENNSYLVANIA

CITY           SKY/WX    TMP DP  RH WIND       PRES   REMARKS
PHILADELPHIA   PTSUNNY   73  69  87 W10       29.58R
ALLENTOWN      LGT RAIN  68  65  90 W8        29.58R FOG
SCRANTON       CLOUDY    67  64  90 SW3       29.57S
$$

CTZ002-004>006-009-010-012-RIZ004-006-007-MAZ004-011-015-281300-
SOUTHERN NEW ENGLAND
 IN CT

CITY           SKY/WX    TMP DP  RH WIND       PRES   REMARKS
BRADLEY INTL   CLOUDY    73  70  90 S7        29.53F
HARTFORD       CLOUDY    73  68  84 S8        29.54S
DANBURY        CLOUDY    70  64  81 S8        29.57R
WTRBRY/OXFORD  CLOUDY    68  64  88 S7        29.58S FOG
BRIDGEPORT     CLOUDY    72  69  90 SW12      29.55S
MERIDEN        CLOUDY    71  67  87 S8        29.55S
NEW HAVEN      CLOUDY    73  68  84 S8        29.56S
CHESTER        CLOUDY    70  68  94 S8        29.58S FOG
GROTON         CLOUDY    70  69  97 S8        29.56F
WILLIMANTIC    CLOUDY    72  69  90 S6        29.56F

 IN RI

CITY           SKY/WX    TMP DP  RH WIND       PRES   REMARKS
PROVIDENCE     HVY RAIN  73  72  96 SE14G23   29.57F FOG
BLOCK ISLAND   CLOUDY    72  66  83 S15       29.58F
WESTERLY       CLOUDY    72  70  93 S9        29.59S FOG

 IN MA

CITY           SKY/WX    TMP DP  RH WIND       PRES   REMARKS
BOSTON         NOT AVBL
WORCESTER      LGT RAIN  69  68  96 S9        29.60F VSB 1
WESTFIELD      CLOUDY    68  66  93 CALM      29.55F FOG
PROVINCETOWN   CLOUDY    72  72 100 CALM      29.63F
NANTUCKET      CLOUDY    68  66  93 S13       29.66R
$$

ANZ330-335-338-340-345-350-353-355-281300-
COASTAL MARINE OBSERVATIONS


STATION/POSITION TIME  SKY/WX   TEMP    WIND        PRES    VSBY  WAVE
                                AIR SEA DIR/SP/G                  HT/PER
                 (UTC)          (F)     (DEG/KT/KT) (MB)    (MI)  (FT/S)
NY HARB ENTRANCE NOT AVBL
4S FIRE IS       NOT AVBL
23SW MTP         1200            70 71              1000.8          5/ 6
HUDSON CANYON    1200            73 74   80/  6/  8 1002.2          4/ 6
EXECUTION ROCKS  1200            71 71  200/ 10/ 12   N/A
WESTERN LI SOUND 1200            71     200/ 10/ 14   N/A           0
CENTRAL LI SOUND 1100            71 73  180/ 12/ 14   N/A           2/ 3
EASTERN LI SOUND 1100            70 68  200/  6/ 10   N/A
ROBBINS REEF     1200            71     180/ 10/ 11   N/A
$$


>>>>>>>>>>>>>>>>>>>>>>>>>>>> KEY <<<<<<<<<<<<<<<<<<<<<<<<<<<
>                                                          <
>     SKY/WX - SKY CONDITION/PRESENT WEATHER               <
>     TMP    - TEMPERATURE IN FAHRENHEIT                   <
>     DP     - DEWPOINT IN FAHRENHEIT                      <
>     RH     - RELATIVE HUMIDITY IN PERCENT                <
>     WIND   - DIRECTION AND SPEED IN MPH                  <
>     PRES   - MEAN SEA LEVEL PRESSURE IN INCHES OF HG     <
>     WCI    - WIND CHILL INDEX                            <
>     VSB    - VISIBILITY IN MILES                         <
>     HX     - HEAT INDEX                                  <
>     TC     - TEMPERATURE IN CELSIUS                      <
>     VRB    - VARIABLE WIND DIRECTION                     <
>                                                          <
>>>>>>>>>>>>>>>>>>>>>>>>>>>> KEY <<<<<<<<<<<<<<<<<<<<<<<<<<<





USA.gov is the U.S. government's official web portal to all federal, state and local government web resources and services.